Easton, MD

10:54 AM EST on November 21, 2019 (GMT -0500)
Easton / Newnam

Weather History for KESN - September, 2019

Change the Weather History Date:

Tuesday, September 24, 2019

  Actual Average Record
Temperature  
Mean Temperature 72 °F -  
Max Temperature 82 °F 77 °F 94 °F (1970)
Min Temperature 61 °F 52 °F 37 °F (1974)
Cooling Degree Days 7    
Growing Degree Days 22 (Base 50)    
Moisture  
Dew Point 60 °F    
Average Humidity 65    
Maximum Humidity 88    
Minimum Humidity 35    
Precipitation  
Precipitation 0.00 in - - ()
Sea Level Pressure  
Sea Level Pressure 29.90 in    
Wind  
Wind Speed 6 mph (WNW)    
Max Wind Speed 13 mph    
Max Gust Speed 21 mph    
Visibility 10 miles    
Events      
Averages and records for this station are not official NWS values.
T = Trace of Precipitation, MM = Missing Value Source: NWS Daily Summary

Daily Weather History Graph

Daily Weather History Graph

Search for Another Location

Airport or City:

Astronomy

Sep. 24, 2019 Rise Set
Actual Time 6:53 AM EDT 6:58 PM EDT
Civil Twilight 6:27 AM EDT 7:24 PM EDT
Nautical Twilight 5:55 AM EDT 7:55 PM EDT
Astronomical Twilight 5:24 AM EDT 8:27 PM EDT
Moon 1:39 AM EDT (9/24) 4:38 PM EDT (9/24)
Length of Visible Light 12h 57m
Length of Day
12h 04m
Waning Crescent, 23% of the Moon is Illuminated
Sep 24
Waning Crescent
Sep 28
New
Oct 5
First Quarter
Oct 13
Full
Oct 21
Last Quarter

Hourly Weather History & Observations

Time (EDT) Temp. Heat Index Dew Point Humidity Pressure Visibility Wind Dir Wind Speed Gust Speed Precip Events Conditions
12:00 AM 79.9 °F - 66.7 °F 64% 29.86 in 10.0 mi West 8.1 mph - N/A   Scattered Clouds
12:20 AM 80.1 °F 82.2 °F 66.6 °F 63% 29.86 in 10.0 mi West 3.5 mph - N/A   Scattered Clouds
12:40 AM 79.3 °F - 67.1 °F 66% 29.86 in 10.0 mi WNW 6.9 mph - N/A   Mostly Cloudy
1:00 AM 79.0 °F - 66.7 °F 66% 29.86 in 10.0 mi WNW 9.2 mph - N/A   Mostly Cloudy
1:20 AM 78.3 °F - 66.2 °F 66% 29.87 in 10.0 mi WNW 8.1 mph - N/A   Scattered Clouds
1:40 AM 77.5 °F - 65.8 °F 67% 29.87 in 10.0 mi WNW 9.2 mph - N/A   Clear
2:00 AM 77.2 °F - 66.2 °F 69% 29.87 in 10.0 mi WNW 8.1 mph - N/A   Clear
2:20 AM 77.0 °F - 65.8 °F 68% 29.86 in 10.0 mi WNW 5.8 mph - N/A   Clear
2:40 AM 76.3 °F - 65.8 °F 70% 29.86 in 10.0 mi WNW 6.9 mph - N/A   Clear
3:00 AM 75.2 °F - 65.8 °F 73% 29.86 in 10.0 mi NW 6.9 mph - N/A   Clear
3:20 AM 75.4 °F - 65.7 °F 72% 29.86 in 10.0 mi NW 6.9 mph - N/A   Clear
3:40 AM 74.5 °F - 65.8 °F 74% 29.86 in 10.0 mi NW 5.8 mph - N/A   Clear
4:00 AM 73.6 °F - 65.8 °F 77% 29.86 in 10.0 mi NW 4.6 mph - N/A   Clear
4:20 AM 73.2 °F - 66.0 °F 78% 29.86 in 10.0 mi Calm Calm - N/A   Clear
4:40 AM 72.5 °F - 65.8 °F 80% 29.87 in 10.0 mi NW 3.5 mph - N/A   Clear
5:00 AM 72.0 °F - 66.2 °F 82% 29.87 in 10.0 mi Calm Calm - N/A   Clear
5:20 AM 71.4 °F - 66.0 °F 83% 29.87 in 10.0 mi NW 4.6 mph - N/A   Clear
5:40 AM 70.0 °F - 65.5 °F 86% 29.88 in 10.0 mi NW 4.6 mph - N/A   Clear
5:45 AM 69.8 °F - 64.4 °F 83% 29.89 in 10.0 mi WNW 3.5 mph - N/A   Clear
6:45 AM 69.8 °F - 64.4 °F 83% 29.91 in 10.0 mi NW 3.5 mph - N/A   Clear
7:50 AM 68.0 °F - 64.4 °F 88% 29.92 in 10.0 mi NW 5.8 mph - N/A   Clear
8:50 AM 75.2 °F - 62.6 °F 65% 29.92 in 10.0 mi WNW 9.2 mph - N/A   Clear
9:50 AM 75.2 °F - 55.4 °F 50% 29.94 in 10.0 mi NW 10.4 mph - N/A   Clear
10:50 AM 77.0 °F - 53.6 °F 44% 29.95 in 10.0 mi WNW 11.5 mph 20.7 mph N/A   Scattered Clouds
11:50 AM 78.8 °F - 53.6 °F 42% 29.93 in 10.0 mi West 12.7 mph 18.4 mph N/A   Scattered Clouds
12:55 PM 80.6 °F 80.3 °F 53.6 °F 39% 29.92 in 10.0 mi West 5.8 mph 18.4 mph N/A   Scattered Clouds
1:50 PM 80.6 °F - 51.8 °F 37% 29.90 in 10.0 mi WNW 8.1 mph 16.1 mph N/A   Scattered Clouds
2:50 PM 82.4 °F - 51.8 °F 35% 29.88 in 10.0 mi West 9.2 mph 17.3 mph N/A   Scattered Clouds
3:50 PM 80.6 °F 80.3 °F 53.6 °F 39% 29.88 in 10.0 mi WNW 10.4 mph 16.1 mph N/A   Scattered Clouds
4:50 PM 78.8 °F - 53.6 °F 42% 29.88 in 10.0 mi NW 5.8 mph - N/A   Scattered Clouds
5:50 PM 78.8 °F - 53.6 °F 42% 29.88 in 10.0 mi NW 10.4 mph - N/A   Scattered Clouds
6:50 PM 75.2 °F - 53.6 °F 47% 29.90 in 10.0 mi NNW 6.9 mph - N/A   Scattered Clouds
7:50 PM 71.6 °F - 53.6 °F 53% 29.92 in 10.0 mi Calm Calm - N/A   Scattered Clouds
8:45 PM 66.2 °F - 55.4 °F 68% 29.93 in 10.0 mi Calm Calm - N/A   Clear
9:45 PM 64.4 °F - 53.6 °F 68% 29.94 in 10.0 mi Calm Calm - N/A   Clear
10:20 PM 63.7 °F - 55.0 °F 73% 29.94 in 10.0 mi Calm Calm - N/A   Clear
10:39 PM 63.7 °F - 54.7 °F 72% 29.94 in 10.0 mi Calm Calm - N/A   Clear
10:59 PM 63.5 °F - 55.0 °F 74% 29.95 in 10.0 mi Calm Calm - N/A   Clear
11:19 PM 63.5 °F - 54.9 °F 73% 29.95 in 10.0 mi Calm Calm - N/A   Clear
11:39 PM 62.2 °F - 55.4 °F 78% 29.95 in 10.0 mi Calm Calm - N/A   Clear
11:59 PM 61.3 °F - 54.9 °F 79% 29.95 in 10.0 mi Calm Calm - N/A   Clear